Track COSMOS 2465 (GLONASS) now! COSMOS 2465 (GLONASS) is classified as:
1 37138U 10041B 25182.52201403 .00000067 00000-0 00000-0 0 9996 2 37138 63.9093 202.2475 0040875 181.0990 175.6365 2.13098416115383